Other Public Products
Issued by NWS Charleston, SC

Current Version | Previous Version | Text Only | Print | Product List | Glossary Off
Versions: 1 2 3 4 5 6 7 8 9 10 11 12 13 14 15 16 17 18 19 20 21 22 23 24 25 26 27 28 29 30 31 32 33 34 35 36 37 38 39 40 41 42 43 44 45 46 47 48 49 50
668 FPUS82 KCHS 261628 OPUCHS TEST...KCHS/KSAV Gateway Observations...TEST National Weather Service Charleston SC 1200 PM EDT SAT MAY 26 2018 NOTE: "fair" indicates few or no clouds below 12,000 feet with no significant weather and/or obstructions to visibility. SCZ050-WAZ558-NCZ071-TXZ119-213-PAZ071-DCZ001-FLZ074-172-MI076- NYZ176-178-MAZ016-IL014-TNZ027-NJZ106-GAZ044-MD014-261700- ...Gateway Observations for Charleston International... CITY SKY/WX TMP DP RH WIND PRES REMARKS Chas Airport PTSUNNY 85 71 63 S12 30.00S HX 90 Seattle PTSUNNY 55 44 66 S7 30.16R Charlotte PTSUNNY 77 72 83 SW10 30.00S Dallas DFW MOSUNNY 86 67 52 S3 29.84F Dallas Love MOSUNNY 84 67 56 CALM 29.85S Philladelphia FAIR 82 68 62 SW6 29.84F Wash National FAIR 83 70 64 S14 29.88S Baltimore PTSUNNY 87 70 56 SW5 29.85F HX 92 Miami LGT RAIN 73 72 96 S3 29.94S FOG Detroit CLOUDY 72 61 68 S3 29.84R Newark PTSUNNY 85 68 56 S8 29.81F Laguardia PTSUNNY 89 62 40 W10 29.80F J F K PTSUNNY 75 67 76 S13 29.83F Boston Logan CLOUDY 85 55 35 W10G20 29.75 Ft. Lauderdale LGT RAIN 79 77 94 E16 29.93F Chicago O`Hare FAIR 81 62 52 W7 29.78F Chicago Midway FAIR 82 61 48 CALM 29.79S Houston Bush PTSUNNY 84 73 69 W9 29.89R HX 90 Houston Hobby PTSUNNY 84 74 71 W10 29.88R HX 91 Nashville PTSUNNY 80 68 66 VRB3 29.93F Atlanta PTSUNNY 78 69 73 VRB3 30.00S $$ GAZ044-118-TXZ119-213-NCZ071-DCZ001-MDZ014-506-PAZ021-071-NJZ106- NYZ176-178-MAZ106-OHZ011-021-055-MIZ076-KYZ091-ILZ014-INZ047- MNZ060-ONZ431-261700- ...Gateway Observations for Savannah International... CITY SKY/WX TMP DP RH WIND PRES REMARKS Savannah Arpt PTSUNNY 82 72 71 SE7 30.00F THUNDER Atlanta PTSUNNY 78 69 73 VRB3 30.00S Charlotte PTSUNNY 77 72 83 SW10 30.00S Dallas DFW MOSUNNY 86 67 52 S3 29.84F Houston Bush PTSUNNY 84 73 69 W9 29.89R HX 90 Wash National FAIR 83 70 64 S14 29.88S Wash Dulles FAIR 85 69 58 CALM 29.88S Baltimore PTSUNNY 87 70 56 SW5 29.85F HX 92 Philadelphia FAIR 82 68 62 SW6 29.84F Newark PTSUNNY 85 68 56 S8 29.81F Laguardia PTSUNNY 89 62 40 W10 29.80F J F K PTSUNNY 75 67 76 S13 29.83F Boston CLOUDY 85 55 35 W10G20 29.75 Pittsburg FAIR 83 59 44 W9 29.89S Akron LGT RAIN 78 64 61 SW9 29.89S Cleveland CLOUDY 76 63 64 SW7 29.87S Cincinnati PTSUNNY 79 67 66 S8 29.89F Columbus FAIR 80 67 64 MISG 29.87F Detroit CLOUDY 72 61 68 S3 29.84R Chicago O`Hare FAIR 81 62 52 W7 29.78F Minneapolis FAIR 84 64 50 VRB3 29.72S Indianapolis PTSUNNY 78 69 73 SW9 29.85S Toronto Canada CLOUDY 77 59 53 SE7 29.80S $$

USA.gov is the U.S. government's official web portal to all federal, state and local government web resources and services.